[[{"header":{"parameterUnit":"m.s-1","parameterCategory":1,"la1":30.2992,"la2":30.254,"lo1":-89.0895,"lo2":-89.0443,"dy":0.0025,"dx":0.0025,"nx":19,"ny":19,"refTime":"2026-04-25T21:00:00:Z","depth":0,"parameterNumber":2,"parameterNumberName":"U-component_of_WINDS"},"data":[0,0,0,-2.6179,-2.618,-2.6222,-2.6222,-2.6288,-2.6289,0,0,0,0,0,0,0,0,0,0,0,-2.6174,-2.6174,-2.6179,-2.618,-2.6222,-2.6222,-2.6288,-2.6289,0,0,0,0,0,0,0,0,0,0,0,-2.6173,-2.6174,-2.6175,-2.618,-2.6222,-2.6222,-2.6288,-2.6252,0,0,0,0,0,0,0,0,0,0,-2.6209,-2.6211,-2.6174,-2.6175,-2.6181,-2.6222,-2.6222,-2.625,-2.6254,-2.6274,0,-2.6294,0,-2.6293,-2.6294,-2.6294,0,0,0,-2.6175,-2.6208,-2.6213,-2.6175,-2.6181,-2.6222,-2.6202,-2.6252,-2.6257,-2.628,-2.6295,-2.6297,-2.6294,-2.6295,-2.6295,-2.643,-2.643,0,0,-2.6173,-2.6185,-2.6209,-2.6216,-2.621,-2.62,-2.6203,-2.6255,-2.6272,-2.6295,-2.6298,-2.6295,-2.6295,-2.6296,-2.6429,-2.643,0,0,0,-2.617,-2.6184,-2.6187,-2.6214,-2.622,-2.6202,-2.6205,-2.627,-2.627,-2.6299,-2.6296,-2.6296,-2.6296,-2.6428,-2.6429,-2.6484,0,0,0,-2.6168,-2.6182,-2.6186,-2.6195,-2.622,-2.6245,-2.6219,-2.6266,-2.6271,-2.6295,-2.6296,-2.6297,-2.6427,-2.6428,-2.6481,-2.6508,0,0,0,-2.6169,-2.6182,-2.619,-2.6195,-2.6214,-2.6244,-2.6247,-2.6267,-2.627,-2.6294,-2.6297,-2.6426,-2.6428,-2.6477,-2.6503,-2.6547,0,0,0,-2.6173,-2.6239,-2.6192,-2.6264,-2.6213,-2.6278,-2.6247,-2.6294,-2.6322,-2.6296,-2.6427,-2.6429,-2.6476,-2.6499,-2.6543,-2.6586,-2.6604,0,0,-2.6263,-2.625,-2.6292,-2.6251,-2.6327,-2.6271,-2.6356,-2.6369,-2.636,-2.6407,-2.641,-2.6482,-2.6502,-2.6546,-2.6708,-2.6723,0,0,0,-2.6325,-2.6355,-2.6372,-2.6399,-2.6412,-2.6425,-2.6424,-2.6429,-2.6468,-2.6387,-2.651,-2.6522,-2.6547,-2.6566,-2.6579,-2.66,-2.6439,-2.6439,-2.6438,-2.6469,-2.6454,-2.6523,-2.6513,-2.6541,-2.654,-2.656,-2.6567,-2.6544,-2.6574,-2.6587,-2.6687,-2.6711,-2.672,-2.6742,-2.6609,-2.6609,-2.661,-2.661,-2.6599,-2.6639,-2.6608,-2.6663,-2.6648,-2.6694,-2.6696,-2.6679,-2.672,-2.6676,-2.6697,-2.665,-2.6737,-2.6756,-2.6614,-2.6613,-2.6613,-2.6612,-2.6612,-2.6691,-2.6707,-2.6713,-2.6752,-2.6784,-2.6772,-2.6813,-2.6798,-2.6784,-2.6805,-2.6817,-2.6817,-2.6813,-2.6812,-2.6813,-2.6813,-2.6813,-2.6814,-2.6814,-2.6783,-2.6788,-2.6824,-2.6844,-2.686,-2.6879,-2.6881,-2.6896,-2.6909,-2.6895,-2.6895,-2.6869,-2.6749,-2.6719,-2.6819,-2.6818,-2.6818,-2.6817,-2.6817,-2.6918,-2.6886,-2.6942,-2.6958,-2.698,-2.7013,-2.6994,-2.7027,-2.7037,-2.7058,-2.7029,-2.6943,-2.6928,-2.6918,-2.6892,-2.7032,-2.7032,-2.7032,-2.7032,-2.6995,-2.6987,-2.7041,-2.7068,-2.7093,-2.7081,-2.7146,-2.7148,-2.7145,-2.7151,-2.7129,-2.7095,-2.7085,-2.7076,-2.7063,-2.7038,-2.7212,-2.7212,-2.7212,-2.7077,-2.7071,-2.7128,-2.7125,-2.7142,-2.7157,-2.7217,-2.725,-2.724,-2.7219,-2.7156,-2.7148,-2.7092,-2.7075,-2.7051,-2.703,-2.6985,0,0]},{"header":{"parameterUnit":"m.s-1","parameterCategory":1,"la1":30.2992,"la2":30.254,"lo1":-89.0895,"lo2":-89.0443,"dy":0.0025,"dx":0.0025,"nx":19,"ny":19,"refTime":"2026-04-25T21:00:00:Z","depth":0,"parameterNumber":3,"parameterNumberName":"V-component_of_WINDS"},"data":[0,0,0,1.8043,1.8043,1.8034,1.8034,1.8032,1.8032,0,0,0,0,0,0,0,0,0,0,0,1.8052,1.8052,1.8043,1.8043,1.8034,1.8034,1.8032,1.8032,0,0,0,0,0,0,0,0,0,0,0,1.8052,1.8052,1.8052,1.8043,1.8034,1.8034,1.8032,1.8035,0,0,0,0,0,0,0,0,0,0,1.8043,1.8056,1.8052,1.8052,1.8043,1.8034,1.8034,1.8035,1.8035,1.804,0,1.8047,0,1.8039,1.8033,1.8033,0,0,0,1.8039,1.8057,1.8049,1.8052,1.8043,1.8034,1.8037,1.8035,1.8035,1.804,1.8046,1.8046,1.8039,1.8033,1.8033,1.8079,1.808,0,0,1.8039,1.8053,1.8049,1.8049,1.8051,1.8037,1.8037,1.8035,1.8043,1.8046,1.8046,1.8039,1.8033,1.8033,1.8079,1.8079,0,0,0,1.8044,1.8054,1.8046,1.8049,1.8047,1.8037,1.8037,1.8043,1.8039,1.8046,1.8039,1.8033,1.8033,1.8078,1.8079,1.8115,0,0,0,1.8044,1.8057,1.8047,1.8055,1.8047,1.8045,1.8045,1.8039,1.8038,1.8039,1.8033,1.8033,1.8078,1.8079,1.8113,1.8129,0,0,0,1.8051,1.8057,1.8058,1.8056,1.8053,1.8044,1.804,1.8039,1.8035,1.8033,1.8033,1.8077,1.8078,1.8111,1.8126,1.8146,0,0,0,1.8062,1.8089,1.8059,1.8087,1.8053,1.8067,1.804,1.805,1.8052,1.8033,1.8078,1.8079,1.811,1.8124,1.8144,1.8166,1.8176,0,0,1.8104,1.8095,1.811,1.8083,1.8106,1.8067,1.8095,1.8084,1.807,1.8077,1.8078,1.8113,1.8126,1.8146,1.8228,1.8237,0,0,0,1.8128,1.814,1.8143,1.8146,1.8139,1.8134,1.8116,1.8112,1.8118,1.8077,1.8125,1.8132,1.8143,1.8153,1.816,1.8169,1.8084,1.8084,1.8084,1.8208,1.8191,1.8215,1.8197,1.8201,1.8183,1.8185,1.8176,1.8156,1.8168,1.817,1.8223,1.8235,1.824,1.8249,1.818,1.818,1.818,1.818,1.8269,1.8283,1.8257,1.8272,1.8253,1.8266,1.825,1.8236,1.8245,1.8219,1.8228,1.8202,1.8249,1.8257,1.8183,1.8182,1.8182,1.8182,1.8182,1.832,1.8324,1.8319,1.8323,1.8328,1.8308,1.8319,1.8301,1.8284,1.8293,1.8294,1.8293,1.8291,1.8294,1.8295,1.8295,1.8295,1.8295,1.8295,1.8375,1.8368,1.8379,1.8375,1.8375,1.8374,1.8358,1.8358,1.8353,1.834,1.834,1.8319,1.8257,1.8242,1.8298,1.8298,1.8297,1.8297,1.8297,1.8444,1.8426,1.8443,1.8444,1.8438,1.8445,1.8422,1.8424,1.8422,1.8428,1.8406,1.8362,1.8351,1.8345,1.8333,1.8409,1.8409,1.8409,1.8409,1.8487,1.848,1.8494,1.8497,1.8498,1.8479,1.85,1.8488,1.8473,1.8471,1.8457,1.8439,1.8434,1.8426,1.8418,1.8407,1.8499,1.8499,1.85,1.8529,1.8522,1.8543,1.8528,1.8522,1.8518,1.8537,1.8542,1.852,1.8503,1.8469,1.8465,1.8436,1.8427,1.8408,1.8397,1.8375,0,0]}]]